* Astronomy

Members Login
Username 
 
Password 
    Remember Me  
Post Info TOPIC: Asteroid 2011 EH


L

Posts: 131433
Date:
Asteroid 2011 EH
Permalink  
 


Orbital elements:
2011 EH Earth MOID = 0.0077 AU
Epoch 2011 Feb. 8.0 TT = JDT 2455600.5 MPC
M 20.26523 (2000.0) P Q
n 0.54532780 Peri. 97.24983 +0.23371589 -0.97219543
a 1.4837622 Node 339.21669 +0.87505938 +0.21685925
e 0.4829989 Incl. 2.35689 +0.42384898 +0.08836356
P 1.81 H 25.5 G 0.15 U 8

MPEC 2011 - E07


__________________
Page 1 of 1  sorted by
 
Quick Reply

Please log in to post quick replies.



Create your own FREE Forum
Report Abuse
Powered by ActiveBoard